Regional Weather Roundup
Issued by NWS Midland/Odessa, TX

Skip options and go directly to product.
Home | Oldest Version | Previous Version | Current Version | All | Graphics & Text | Save Text | Print | Product List | Glossary On

Skip product version selection by date and time.   
185
ASUS44 KMAF 281010
RWRMAF
MIDLAND AREA WEATHER ROUNDUP
NATIONAL WEATHER SERVICE MIDLAND TX
500 AM CDT SUN AUG 28 2016

...IN SOUTHWEST TEXAS AND SOUTHEAST NEW MEXICO...

CITY           SKY/WX    TMP DP  RH WIND       PRES   REMARKS
ALPINE         CLEAR     64  59  84 S5        30.20S
ANDREWS        NOT AVBL
ARTESIA        CLOUDY    66  64  94 NE7       30.12F
BIG SPRING     CLOUDY    73  69  88 CALM      30.09S
CARLSBAD       MOCLDY    69  58  67 NE9       30.08F
DRYDEN           N/A     71  66  84 N7        30.01F
FORT STOCKTON  CLEAR     69  62  78 SE6       30.06S
GUAD PASS      CLOUDY    62  57  83 SW8       30.21F
HOBBS          CLOUDY    66  66 100 NW8       30.14S
MARFA          CLOUDY   N/A N/A N/A NW5       30.19R
MIDLAND AIRPK  CLOUDY    73  63  72 S3        30.09S
MIDLAND INTL   PTCLDY    71  63  75 SE5       30.08R
ODESSA         CLOUDY    72  62  71 S5        30.09S
PECOS          CLEAR     69  64  83 NE7       30.03S
PRESIDIO       NOT AVBL
SEMINOLE       CLOUDY    68  64  89 CALM      30.12S
SNYDER           N/A     69  67  91 CALM      30.08S
WINK           CLEAR     70  64  81 E8        30.04F
$$
...OTHER STATIONS IN TEXAS...

CITY           SKY/WX    TMP DP  RH WIND       PRES   REMARKS
ABILENE        CLEAR     71  69  93 SE7       30.05S
AMARILLO       CLOUDY    66  63  90 SE6       30.14F
AUSTIN         CLEAR     71  70  96 CALM      29.98S
BROWNSVILLE    CLEAR     76  75  97 CALM      29.92S
CORPUS CHRISTI PTCLDY    76  74  93 NW3       29.92F
DALLAS FTW     CLEAR     75  69  81 S6        30.02R
DEL RIO        CLOUDY    77  70  79 E7        29.97S
EL PASO        FAIR      70  61  73 CALM      30.11S
HOUSTON INT    CLOUDY    75  73  93 NE8       29.95F
LUBBOCK        CLOUDY    69  62  78 NW9       30.13R
SAN ANGELO     CLEAR     70  66  87 SW5       30.04F
SAN ANTONIO    CLEAR     75  70  84 CALM      29.99S
WACO           CLEAR     72  71  97 CALM      30.00F
WICHITA FALLS  NOT AVBL
$$
...OTHER LOCATIONS IN NEW MEXICO...

CITY           SKY/WX    TMP DP  RH WIND       PRES   REMARKS
ALAMAGORDO     CLOUDY    63  59  88 S6        30.15R
ALBUQUERQUE    CLOUDY    56  49  77 CALM      30.23R
CANNON AFB     CLOUDY    61  61 100 S12       30.18R
CLOVIS         CLOUDY    61  55  82 S14       30.17R
HOLLOMAN AFB   PTCLDY    64  60  85 S7        30.12R
ROSWELL        LGT RAIN  65  59  81 SE7       30.11F
RUIDOSO          N/A     57  50  77 CALM      30.31S
SANTA FE       CLOUDY    52  49  89 N10       30.26R
TRUTH OR CONSE FAIR      62  50  64 NW5       30.17R
TUCUMCARI      PTCLDY    64  58  80 W8        30.13R
$$

USA.gov is the U.S. government's official web portal to all federal, state and local government web resources and services.